COSMOS 252 DEB, 3559

Orbit data source: Space-Track

COSMOS 252 DEB, 3559 is space debris in LEO originally from a launch on Fri, 01 Nov 1968 UTC launched from the Tyuratam Missile And Space Complex (TTMTR). Debris objects in space refer to the collection of defunct objects orbiting the Earth. Examples of debris include non-operational satellites, rocket bodies, and fragments generated from explosions, collisions, or faulty payload assembly.

Loading next visibility...
Identifier
3559, 1968-097M
Orbit
LEO
Country
Flag of CISCIS
Related business
Manufacturer
Unknown
Mission
Spacecraft
Bus & Motor
Unknown
Mass
Unknown
Launch date (UTC)
1968-11-01 (57 years ago)
Launch vehicle
Unknown
Launch site
Tyuratam Missile And Space Complex (TTMTR)
Object type
Payload
Rocket body
Debris
Shape & HBR
Unknown shape, 0.2 m
Radar Cross Section
Small (<0.1 m²)

Expand to show TLE details & history
Last TLE update: 11 hours ago

TLE from 11 hours ago
0 COSMOS 252 DEB
1 03559U 68097M   25352.24250165  .00003427  00000-0  69761-3 0  9992
2 03559  62.2874 181.1302 0457529 209.8106 147.6156 14.12927432818302
Epoch: 2025-12-18T05:49Z
TLE epoch observation values (Epoch: 2025-12-18T05:49:12.142Z)
Latitude
-0.00009°
Longitude
6.72875°
Altitude
1,134.464 km
Speed
7.142 km/s
True Right ascension
12h 04m 31s
True Declination
0° 00' 00"
Sunlit
Object was in daylight at epoch
Visualization orbit readout
Latitude
Unknown
Longitude
Unknown
Altitude
Unknown
Speed
Unknown
Apparent Right ascension
Unknown
Apparent Declination
Unknown
Sunlit
N/A
Visualization observer readout
Local Sidereal Time
15:47:55
Azimuth
Unknown
Elevation
Unknown
Doppler factor
Unknown
Orbital elements
Apogee altitude
1,178.933 km
Perigee altitude
517.672 km
Semi-major axis
7,226.439 km
Eccentricity
0.04575
Inclination
62.2874°
RAAN
181.1302°
Arg. of periapsis
209.8106°
True anomaly
150.29312°
Mean anomaly
147.6156°
Eccentric anomaly
148.96704°
Mean motion
3.53311 °/min
Orbital period
101.89 mins
BSTAR
0.00069761
Loading maneuver chart data...
Computing Atmospheric mass density...

Documentation

Showing up to 5 results
|